User: anonymous   Login
Location: Onan Observatory
(44.8103°N, 93.9397°W)
Time: 01:07:23
(UTC-05:00)
Language:

Iridium 90 - Orbit

View from above orbital plane
View from above orbital plane
View from above satellite
View from above satellite

Ground track
Ground track

The orbit data is extracted from the following two-line orbital elements,

1 27373U 02005B   16121.57885605  .00000145  00000-0  37447-4 0  9993
2 27373  86.4484 162.5551 0002291  90.4035 269.7428 14.42952967751851
Epoch (UTC): 30 April 2016 13:53:33
Eccentricity: 0.0002291
inclination: 86.4484°
perigee height: 747 km
apogee height: 750 km
right ascension of ascending node: 162.5551°
argument of perigee: 90.4035°
revolutions per day: 14.42952967
mean anomaly at epoch: 269.7428°
orbit number at epoch: 75185

The dashed part of the orbit path shows where the satellite is in the earth's shadow,  

DLR